Location: Unspecified
(17.6330°N, 0.0000°E)
Time: 23:39:31
(UTC+00:00)

SR - Visible Passes

Search period start: 17 June 2019 00:00
Search period end: 27 June 2019 00:00
Orbit: 582 x 874 km, 66.7° (Epoch: 17 June)

Date Brightness Start Highest point End Pass type
(mag) Time Alt. Az. Time Alt. Az. Time Alt. Az.
17 Jun ? 03:49:45 45° S 03:51:01 78° ESE 03:55:15 10° NNE visible
18 Jun ? 03:01:58 25° E 03:01:58 25° E 03:05:04 10° NE visible
18 Jun ? 04:41:24 11° W 04:43:22 14° WNW 04:45:38 10° NNW visible
19 Jun ? 03:53:32 37° WNW 03:53:42 38° WNW 03:57:39 10° N visible
20 Jun ? 03:05:36 39° NE 03:05:36 39° NE 03:08:22 10° NNE visible
21 Jun ? 02:17:36 12° ENE 02:17:36 12° ENE 02:18:04 10° NE visible
21 Jun ? 03:57:02 15° NW 03:57:02 15° NW 03:59:00 10° NNW visible
22 Jun ? 03:08:59 23° N 03:08:59 23° N 03:10:50 10° N visible
23 Jun ? 02:20:52 14° NNE 02:20:52 14° NNE 02:21:28 10° NNE visible
24 Jun ? 03:12:08 11° NNW 03:12:08 11° NNW 03:12:20 10° NNW visible
25 Jun ? 02:23:56 10° N 02:23:56 10° N 02:24:01 10° N visible
